Regional Weather Roundup
Issued by NWS Green Bay, WI

Home | Current Version | Previous Version | Text Only | Print | Product List | Glossary On
Versions: 1 2 3 4 5 6 7 8 9 10 11 12 13 14 15 16 17 18 19 20 21 22 23 24 25 26 27 28 29 30 31 32 33 34 35 36 37 38 39 40 41 42 43 44 45 46 47 48 49 50
000
ASUS43 KGRB 031510
RWRGRB

NORTH-CENTRAL AND NORTHEAST WISCONSIN REGIONAL WEATHER ROUNDUP
NATIONAL WEATHER SERVICE GREEN BAY WI
900 AM CST TUE MAR 03 2015

WIZ005-009-010>012-018-019-031600-
NORTH CENTRAL WISCONSIN

CITY           SKY/WX    TMP DP  RH WIND       PRES   REMARKS
IRONWOOD       CLOUDY    21  16  79 S8        29.64F
MANITOWISH WTR CLOUDY    19  13  78 S9        29.65S WCI   8
ARBOR VITAE    CLOUDY    22  16  78 S9        29.65F
EAGLE RIVER    PTSUNNY   19  13  74 S8        29.67F WCI   9
LAND O LAKES   CLOUDY    20  14  75 S7        29.66F
RHINELANDER    LGT SNOW  19  14  81 S6        29.66F VSB 3/4
PHILLIPS       LGT SNOW  19  15  84 S7        29.67S WCI  10
ANTIGO         LGT SNOW  19  16  91 SE6       29.68F VSB 1
TOMAHAWK       SNOW      19  15  85 CALM      29.68F VSB 1/2
MERRILL        LGT SNOW  20  17  88 SE6       29.68F
$$

WIZ013-073-031600-
NORTHEAST WISCONSIN

CITY           SKY/WX    TMP DP  RH WIND       PRES   REMARKS
IRON MOUNTAIN  CLOUDY    20  16  84 SE8       29.71F FOG
MARINETTE      CLOUDY    27  23  86 S9        29.75F VSB 1
OCONTO         CLOUDY    26  26  99 S9        29.76F VSB 1
$$

WIZ017-030-035>037-045-031600-
CENTRAL WISCONSIN

CITY           SKY/WX    TMP DP  RH WIND       PRES   REMARKS
MEDFORD        LGT SNOW  19  16  85 SE7       29.67F
WAUSAU         LGT SNOW  20  17  88 SE7       29.67F VSB 3/4
MOSINEE        CLOUDY    19  19 100 SE9       29.69F WCI   9
MARSHFIELD     MIX PCPN  21  17  84 S12       29.69S FOG     WCI   9
WISC RAPIDS    CLOUDY    22  17  81 SE7       29.70F HAZE
STEVENS POINT  LGT SNOW  20  17  89 SE6       29.70F
WAUPACA        LGT SNOW  25  21  86 SE6       29.72F VSB 3/4
SHAWANO        SNOW      26  22  86 S5        29.74F VSB 1/2
CLINTONVILLE   SNOW      25  21  86 SE8       29.73F VSB 1/2
$$

WIZ038-039-048-051-031600-
FOX VALLEY

CITY           SKY/WX    TMP DP  RH WIND       PRES   REMARKS
NWS GREEN BAY  SNOW      26  24  92 S9        29.76F VSB 1/4
APPLETON       LGT SNOW  25  23  93 SE12      29.72F VSB 3/4
OSHKOSH        LGT SNOW  25  22  88 S12       29.73F VSB 3/4
FOND DU LAC    LGT SNOW  26  22  84 S13       29.72F VSB 1
$$

WIZ022-050-052-031600-
EAST CENTRAL WISCONSIN

CITY           SKY/WX    TMP DP  RH WIND       PRES   REMARKS
STURGEON BAY   CLOUDY    27  23  86 S16G24    29.79F
MANITOWOC      SNOW      28  27  96 S18G25    29.78F VSB 1/2
SHEBOYGAN      LGT SNOW  28  25  88 S15       29.76F VSB 3/4
$$

LMZ563-521-522-541>543-031600-
LAKESHORE

STATION/POSITION TIME  TEMP    WIND        PRES    VSBY  WAVE
                       AIR SEA DIR/SP/G                  HT/PER
                 (UTC) (F)     (DEG/KT/KT) (MB)    (MI)  (FT/S)
SHEBOYGAN LKSHOR 1500   29     170/ 26/ 28 1008.7F
KEWAUNEE LKSHORE 1500          180/ 22/ 26   N/A
NORTHPORT PIER   1500   27     150/ 13/ 22 1009.5F
SISTER BAY LKSHO 1400   29     160/ 16/ 20   N/A
CHAMBERS ISLAND  1500   27     160/ 10/ 14 1009.1F
MENOMINEE LKSHOR 1500          170/  8       N/A
$$


USA.gov is the U.S. government's official web portal to all federal, state and local government web resources and services.